Temperature
-10 -11 -11 -11 -12 -13 -13 -13 -14 -14 -14 -14 -14 -14 -14 -13 -13 -12 -12 -11 -10 -9 -9 -9 -8 -8 -7 -7 -6 -6 -5 -5 -4 -3 -3 -1 0 3 4 5 7 8 9
-10 -11 -11 -12 -12 -13 -13 -14 -14 -14 -14 -14 -14 -14 -13 -13 -13 -12 -11 -10 -10 -9 -9 -9 -8 -8 -7 -7 -6 -6 -5 -5 -4 -3 -3 -2 -0 1 3 4 5 7 8
-10 -11 -11 -12 -13 -13 -13 -13 -13 -13 -14 -14 -13 -13 -13 -13 -12 -11 -11 -10 -9 -9 -9 -9 -8 -8 -8 -7 -7 -6 -5 -5 -4 -3 -3 -2 -1 1 1 3 4 6 7
-10 -11 -11 -12 -13 -13 -13 -13 -13 -13 -13 -13 -13 -13 -13 -12 -11 -10 -10 -9 -9 -9 -9 -9 -9 -8 -8 -8 -7 -7 -6 -5 -4 -3 -3 -2 -1 -0 0 2 3 5 6
-10 -11 -11 -12 -12 -13 -13 -13 -13 -13 -13 -13 -13 -12 -12 -11 -10 -9 -9 -9 -9 -9 -9 -9 -9 -9 -9 -8 -8 -8 -7 -6 -5 -4 -3 -2 -1 -0 0 1 2 4 6
-10 -11 -11 -12 -12 -13 -13 -13 -13 -13 -13 -13 -12 -12 -11 -11 -9 -10 -10 -10 -10 -10 -10 -9 -9 -9 -9 -9 -9 -8 -8 -7 -7 -5 -4 -3 -2 -1 0 1 2 3 5
-10 -11 -11 -12 -13 -13 -13 -13 -13 -13 -13 -13 -12 -12 -11 -11 -10 -10 -10 -10 -10 -10 -10 -10 -10 -10 -10 -9 -9 -8 -8 -8 -8 -7 -6 -5 -3 -2 -0 1 2 3 4
-10 -10 -11 -12 -12 -13 -13 -13 -13 -13 -13 -13 -13 -12 -12 -11 -11 -11 -11 -11 -11 -11 -11 -11 -11 -10 -10 -10 -10 -9 -9 -8 -8 -7 -7 -6 -5 -3 -2 0 2 3 4
-10 -10 -11 -11 -12 -13 -13 -13 -13 -13 -13 -13 -13 -13 -12 -12 -11 -11 -12 -11 -11 -11 -11 -11 -11 -11 -11 -11 -10 -10 -9 -9 -8 -8 -7 -6 -5 -4 -2 -0 1 2 3
-9 -10 -11 -11 -12 -12 -13 -13 -13 -13 -13 -13 -13 -13 -13 -13 -12 -12 -12 -12 -12 -12 -12 -12 -12 -12 -12 -11 -11 -11 -11 -10 -8 -7 -7 -6 -5 -4 -3 -1 0 2 3
-9 -10 -10 -11 -11 -12 -12 -13 -13 -13 -13 -13 -13 -13 -13 -13 -13 -12 -12 -13 -13 -13 -13 -13 -13 -13 -12 -12 -12 -12 -12 -10 -9 -9 -8 -7 -6 -4 -3 -2 -1 1 2
-8 -9 -10 -11 -11 -12 -12 -12 -13 -13 -13 -13 -13 -13 -13 -13 -13 -13 -13 -13 -13 -13 -14 -14 -14 -13 -13 -13 -13 -12 -11 -10 -10 -9 -9 -8 -7 -6 -4 -3 -2 0 1
-8 -8 -9 -10 -11 -11 -12 -12 -13 -13 -13 -13 -13 -13 -13 -13 -13 -13 -13 -13 -14 -14 -14 -14 -14 -14 -13 -13 -13 -12 -11 -11 -11 -11 -10 -10 -9 -8 -5 -4 -2 -1 1
-8 -8 -9 -9 -10 -11 -11 -12 -12 -13 -13 -13 -13 -13 -13 -13 -13 -13 -13 -13 -14 -14 -13 -13 -14 -14 -14 -13 -13 -13 -12 -12 -12 -11 -11 -10 -10 -8 -7 -4 -3 -1 -0
-8 -8 -8 -9 -10 -10 -11 -11 -12 -12 -13 -13 -13 -13 -13 -13 -13 -13 -13 -13 -14 -14 -14 -13 -14 -14 -14 -14 -14 -14 -13 -13 -12 -12 -11 -11 -10 -9 -8 -7 -4 -2 -1
-8 -8 -8 -9 -9 -10 -10 -10 -10 -11 -12 -12 -13 -13 -13 -13 -13 -13 -13 -13 -14 -14 -14 -14 -14 -14 -15 -15 -15 -15 -14 -14 -14 -13 -12 -11 -11 -10 -10 -9 -7 -5 -4
-8 -8 -8 -9 -9 -10 -10 -10 -10 -10 -10 -11 -12 -12 -13 -13 -13 -13 -13 -14 -14 -14 -14 -14 -14 -15 -15 -15 -15 -15 -15 -15 -14 -14 -13 -12 -12 -11 -10 -10 -9 -8 -7
-7 -8 -8 -8 -9 -9 -9 -10 -10 -10 -10 -10 -11 -11 -12 -12 -13 -13 -13 -14 -14 -14 -14 -14 -14 -15 -15 -15 -15 -15 -15 -15 -14 -14 -14 -13 -13 -12 -11 -11 -10 -9 -8
-7 -7 -8 -8 -8 -9 -9 -9 -9 -10 -10 -10 -10 -10 -11 -11 -12 -12 -13 -13 -14 -14 -14 -14 -15 -15 -15 -15 -15 -15 -15 -15 -15 -14 -14 -14 -13 -13 -12 -12 -11 -10 -9
-6 -7 -7 -7 -8 -8 -8 -9 -9 -10 -10 -10 -10 -10 -10 -11 -11 -11 -12 -12 -13 -13 -14 -14 -14 -14 -15 -15 -15 -15 -15 -15 -15 -14 -14 -14 -14 -13 -13 -13 -12 -12 -11
-6 -6 -7 -7 -7 -7 -7 -8 -9 -9 -10 -10 -10 -11 -11 -11 -11 -11 -11 -11 -12 -12 -13 -13 -14 -14 -14 -14 -14 -14 -15 -14 -14 -14 -14 -14 -14 -14 -14 -13 -13 -13 -12
-6 -6 -6 -6 -6 -6 -7 -7 -8 -9 -10 -10 -11 -11 -11 -11 -11 -11 -11 -11 -11 -11 -12 -13 -13 -13 -14 -14 -14 -14 -14 -14 -14 -14 -14 -14 -14 -14 -14 -13 -13 -13 -13
-5 -5 -5 -5 -5 -6 -6 -7 -7 -8 -9 -10 -11 -12 -12 -12 -11 -11 -11 -11 -11 -11 -11 -11 -12 -12 -13 -13 -14 -14 -14 -14 -14 -14 -14 -14 -14 -14 -14 -14 -13 -13 -13
-5 -5 -5 -5 -5 -5 -6 -6 -6 -7 -8 -9 -10 -11 -12 -12 -12 -11 -11 -11 -10 -10 -10 -10 -11 -11 -12 -13 -13 -13 -13 -14 -14 -14 -14 -14 -14 -14 -14 -14 -14 -14 -13
-5 -5 -5 -5 -5 -5 -6 -6 -6 -7 -7 -8 -9 -10 -11 -11 -11 -11 -11 -11 -10 -10 -10 -10 -10 -10 -11 -12 -12 -13 -13 -13 -13 -13 -13 -14 -14 -14 -14 -14 -14 -14 -14
-5 -5 -5 -5 -5 -6 -6 -6 -6 -7 -7 -8 -8 -9 -10 -11 -11 -11 -11 -11 -10 -10 -9 -9 -9 -9 -10 -11 -11 -12 -12 -13 -13 -13 -13 -13 -13 -14 -14 -14 -14 -14 -14
Wind_Speed
10 10 11 11 11 12 10 11 12 13 16 14 14 14 15 15 13 13 14 15 14 14 13 12 12 12 10 9 10 10 10 10 14 13 10 9 11 11 11 10 12 9 6
10 10 11 11 11 12 12 12 15 13 16 16 15 15 16 16 15 15 15 15 14 14 13 12 12 10 11 10 9 9 9 10 11 14 10 8 10 9 9 11 11 8 5
10 11 11 11 12 12 13 13 15 13 14 16 15 16 17 17 17 15 15 14 13 12 10 9 10 10 11 10 9 9 8 9 9 10 10 7 6 6 7 9 11 8 5
11 10 11 12 12 13 12 12 13 13 13 15 17 18 19 19 18 16 13 10 7 7 7 8 9 10 11 11 9 10 10 9 9 8 7 6 5 5 4 6 7 5 4
10 11 12 12 12 12 12 12 12 13 15 15 17 19 20 17 14 9 5 6 6 7 8 9 10 15 20 16 12 12 12 10 9 8 6 5 4 3 3 3 6 5 3
10 11 12 12 12 12 12 12 13 14 14 15 17 18 21 18 22 25 19 14 12 11 11 11 11 12 19 22 23 21 19 14 12 10 7 6 5 4 4 3 4 4 3
10 10 11 11 12 12 13 13 13 13 13 14 16 17 19 23 29 28 27 17 15 14 13 12 13 15 15 11 17 21 19 22 20 13 10 10 8 7 7 5 4 3 2
9 10 11 11 11 12 11 11 10 9 11 11 12 16 17 22 28 25 23 15 13 14 14 14 13 14 16 15 13 13 12 13 17 12 10 11 11 10 7 6 5 4 2
10 10 11 10 11 11 11 11 8 8 8 10 11 13 15 19 27 23 20 9 11 12 13 16 16 13 25 25 17 15 14 13 18 22 20 18 19 19 14 5 3 3 2
10 10 10 10 10 10 11 9 7 7 9 11 12 11 13 14 24 24 19 10 11 11 11 14 21 22 26 26 16 15 16 14 15 16 16 17 15 15 18 9 5 3 1
10 9 10 10 10 9 9 8 8 9 9 9 10 10 11 14 20 24 23 9 11 11 11 11 13 25 25 26 22 16 19 16 13 13 12 12 12 11 12 11 8 4 2
9 9 9 9 9 10 9 8 8 8 7 7 7 8 8 10 15 18 23 20 16 11 11 10 13 24 24 25 20 23 25 19 12 12 12 12 13 13 12 12 11 7 3
8 8 8 9 8 8 7 7 7 7 5 6 7 7 8 9 10 16 18 19 20 11 9 18 20 23 21 17 23 26 20 14 12 12 13 12 12 12 12 11 10 7 7
8 8 8 7 8 7 7 7 6 7 6 6 7 7 8 8 8 6 5 7 11 10 8 14 19 20 18 19 19 16 13 13 13 12 12 12 12 12 12 11 9 8 6
7 8 8 8 8 7 8 6 8 5 9 8 5 6 7 7 10 14 9 6 4 6 7 7 9 10 12 12 12 12 12 13 13 12 12 12 13 13 12 12 11 10 8
7 7 6 6 7 8 8 8 13 14 16 16 15 13 10 14 16 15 13 12 13 14 8 6 7 8 9 10 10 11 11 12 12 12 12 12 12 12 12 11 11 11 11
6 7 6 7 7 8 8 9 10 13 16 16 16 16 14 15 16 15 14 12 12 11 5 4 5 5 6 7 7 7 8 8 9 9 10 11 11 11 11 12 12 11 11
7 8 8 6 6 7 7 8 8 10 11 10 13 15 16 15 15 14 13 9 6 5 3 3 4 4 4 5 5 5 6 7 7 8 9 9 10 10 11 11 12 13 12
6 6 6 5 6 6 7 7 8 9 10 10 10 11 15 14 13 13 11 4 4 4 4 4 4 4 3 4 4 5 5 5 6 6 7 8 8 9 10 11 11 16 14
5 11 9 6 6 7 6 7 8 9 10 10 10 11 9 7 6 8 7 5 5 5 5 4 4 4 3 3 3 4 4 5 6 5 6 6 7 7 9 10 10 10 11
5 7 11 7 6 6 6 6 7 8 9 10 10 14 20 10 9 9 8 7 6 6 6 5 4 4 4 3 3 3 3 4 4 4 5 5 6 6 6 7 9 9 10
4 4 5 5 6 6 6 6 7 8 9 10 10 11 20 12 10 9 9 8 7 7 6 6 5 5 4 4 4 3 2 2 3 3 4 4 4 5 5 6 7 8 9
3 4 5 5 5 8 8 6 7 8 9 10 10 11 11 11 12 12 12 11 8 7 8 8 6 5 8 9 9 6 4 4 3 2 1 2 3 4 4 5 6 7 8
3 4 4 5 5 6 6 7 7 9 10 10 10 11 11 11 12 13 13 12 11 10 9 9 9 10 11 11 11 11 11 9 7 5 3 1 1 2 3 3 4 5 5
1 3 4 4 5 6 7 8 8 9 10 11 11 12 12 12 13 13 13 12 13 12 12 10 10 12 15 16 14 14 14 13 11 9 7 4 2 1 1 2 3 3 3
1 2 3 3 4 5 6 7 8 9 9 10 11 11 11 12 12 13 13 13 15 13 14 13 11 12 15 17 18 19 18 16 15 13 11 7 4 3 3 2 2 2 3
Wind_Direction
329 323 325 323 322 322 321 321 320 319 319 319 319 316 314 311 309 307 304 303 302 303 305 304 304 301 298 294 290 283 278 276 277 284 283 288 288 291 300 306 307 300 272
328 328 329 326 324 325 323 321 321 319 321 322 321 318 316 314 311 306 302 301 299 300 303 306 310 314 311 305 300 293 288 280 280 284 286 281 276 280 290 297 303 296 271
333 334 331 330 330 327 324 323 323 323 324 325 325 322 319 315 311 303 296 292 292 296 305 316 321 330 333 331 326 326 318 307 293 286 285 278 272 273 279 288 289 285 269
338 333 333 332 330 327 325 324 326 329 329 329 329 327 323 317 311 300 295 295 299 313 326 334 342 350 352 346 348 351 341 330 320 302 287 278 268 255 245 266 279 277 265
334 336 336 333 330 330 330 331 333 338 340 335 335 335 334 332 328 339 348 17 25 9 2 358 1 15 11 8 9 6 358 354 350 338 316 295 282 265 232 236 255 265 258
333 334 334 337 336 335 335 340 342 343 340 340 341 341 345 351 19 43 49 39 33 24 14 4 6 14 17 11 11 14 12 9 6 359 346 333 331 329 315 270 245 236 225
333 334 337 337 337 337 342 345 343 341 341 342 343 347 350 358 25 42 43 37 29 21 13 10 13 9 22 11 6 10 10 11 13 7 355 346 339 339 329 308 272 240 220
335 336 337 338 337 337 341 343 338 336 340 341 342 349 353 360 21 38 35 28 23 18 12 8 11 5 16 20 5 4 6 5 4 3 358 350 347 344 326 296 291 288 282
341 340 338 339 339 341 344 341 336 334 338 341 347 349 353 354 12 33 35 14 17 11 10 9 13 11 14 19 12 4 5 3 1 2 4 3 1 358 360 336 289 232 192
342 338 337 341 340 341 342 338 336 336 345 348 349 349 349 349 6 26 39 24 16 11 9 6 9 16 14 18 16 7 8 2 355 354 357 358 357 356 3 2 341 298 196
333 335 340 341 338 343 340 335 337 343 342 340 342 344 345 355 3 16 30 39 23 12 11 7 6 14 14 16 18 13 11 8 357 355 355 355 357 358 354 350 342 315 281
330 336 337 337 342 351 334 333 334 337 333 333 338 343 344 345 356 10 22 29 32 18 7 6 9 16 15 15 17 15 13 12 4 2 2 1 359 356 349 343 339 335 348
332 333 330 333 333 336 329 330 335 338 332 341 343 344 342 344 344 4 17 22 26 26 10 16 18 19 16 12 14 16 14 10 8 5 2 358 352 349 350 350 349 350 27
329 327 329 332 332 329 337 343 337 335 338 344 341 335 328 331 329 334 345 11 19 24 13 10 16 16 18 14 14 13 12 11 12 5 358 353 354 359 6 5 5 2 34
324 324 328 335 327 327 335 333 339 324 346 348 326 324 327 319 328 348 358 357 356 17 13 7 9 10 12 11 10 11 10 11 11 7 5 2 3 6 11 12 18 26 45
329 326 319 323 330 333 327 329 342 349 349 350 346 343 337 338 343 348 347 354 358 8 17 5 7 8 9 7 6 6 8 10 9 8 9 7 6 8 12 17 25 32 42
318 316 313 329 328 331 332 333 333 337 343 346 345 341 337 339 344 343 345 353 353 2 11 344 345 348 349 353 354 355 358 358 1 8 12 10 10 12 17 22 25 31 37
317 320 327 313 317 321 324 326 329 331 333 332 335 335 334 333 334 336 339 347 341 346 325 318 321 328 334 339 343 346 347 353 0 6 10 12 15 18 23 25 29 33 37
319 314 310 310 316 319 323 329 333 333 333 330 329 331 331 324 323 326 333 319 299 300 298 299 300 309 318 328 333 339 344 350 356 359 8 12 16 23 29 29 33 38 43
312 330 337 329 324 325 326 333 339 339 338 338 339 334 329 322 322 320 314 294 285 280 276 277 282 288 298 308 318 332 343 350 355 0 2 8 14 24 30 33 37 40 43
308 322 339 334 320 318 323 332 335 338 339 339 338 341 355 354 335 322 312 298 282 276 270 264 262 268 273 274 280 306 330 340 349 355 0 5 12 23 26 34 39 44 48
309 311 314 315 318 324 339 334 332 336 336 334 335 341 352 353 342 334 324 307 287 270 260 255 249 241 236 236 240 249 274 303 325 346 358 6 14 22 28 35 39 43 49
317 318 321 324 321 338 344 331 334 337 337 333 335 343 346 347 346 344 342 335 318 289 265 249 244 239 238 236 231 220 224 240 242 232 329 6 16 24 31 36 37 43 46
318 323 327 330 333 334 333 335 338 341 340 337 341 344 344 343 341 340 339 337 333 322 292 257 243 238 233 231 229 227 228 233 230 218 206 174 26 30 40 43 43 45 45
325 327 330 328 333 335 334 337 340 342 342 341 343 343 342 341 339 337 336 335 333 331 322 296 257 239 234 228 223 222 224 226 224 216 204 182 169 131 84 70 63 60 58
292 322 321 319 325 330 333 335 337 338 338 338 339 339 338 337 335 334 333 334 335 332 329 323 296 258 233 225 223 222 223 222 220 214 198 184 174 173 157 138 127 106 96
Height
1543 1536 1529 1522 1515 1508 1501 1494 1486 1479 1471 1464 1457 1450 1443 1437 1431 1427 1423 1420 1417 1414 1412 1410 1407 1404 1400 1397 1394 1391 1389 1387 1383 1378 1380 1379 1380 1382 1385 1389 1392 1397 1402
1541 1534 1527 1520 1513 1506 1499 1492 1485 1478 1470 1463 1455 1447 1440 1433 1427 1422 1418 1416 1413 1411 1409 1407 1404 1401 1397 1393 1389 1386 1384 1382 1380 1376 1376 1376 1376 1378 1380 1383 1387 1392 1397
1539 1532 1525 1518 1512 1505 1498 1491 1484 1477 1469 1462 1453 1445 1436 1429 1422 1418 1414 1412 1411 1410 1408 1406 1403 1399 1395 1391 1386 1382 1379 1377 1375 1373 1372 1373 1374 1375 1377 1380 1383 1387 1392
1537 1530 1524 1517 1511 1505 1498 1491 1484 1477 1469 1461 1453 1444 1434 1425 1418 1413 1411 1410 1410 1410 1408 1405 1402 1399 1394 1390 1385 1381 1377 1373 1371 1369 1369 1370 1371 1373 1375 1377 1380 1384 1388
1536 1530 1523 1518 1511 1505 1498 1491 1484 1478 1471 1463 1454 1444 1434 1424 1417 1414 1412 1412 1412 1411 1409 1406 1403 1399 1395 1390 1385 1380 1375 1371 1368 1366 1366 1367 1369 1370 1372 1375 1378 1381 1384
1536 1530 1524 1517 1511 1505 1498 1492 1485 1478 1471 1464 1456 1447 1437 1429 1424 1420 1417 1416 1415 1413 1410 1407 1404 1399 1394 1389 1384 1380 1376 1372 1368 1365 1365 1365 1366 1367 1369 1372 1376 1378 1381
1536 1530 1523 1517 1511 1505 1499 1492 1486 1479 1473 1466 1459 1452 1444 1437 1433 1428 1425 1422 1419 1416 1413 1409 1406 1402 1396 1390 1384 1380 1375 1371 1369 1366 1364 1364 1364 1364 1365 1368 1371 1374 1377
1535 1529 1523 1517 1511 1505 1499 1493 1487 1481 1475 1469 1463 1457 1450 1445 1440 1435 1431 1427 1424 1420 1416 1412 1408 1403 1399 1392 1386 1380 1375 1371 1369 1366 1364 1362 1361 1362 1363 1365 1367 1370 1374
1535 1529 1523 1517 1511 1505 1500 1494 1489 1483 1477 1471 1466 1461 1455 1450 1446 1440 1435 1431 1427 1423 1419 1415 1411 1406 1401 1394 1388 1382 1377 1373 1369 1366 1363 1360 1359 1359 1359 1361 1363 1367 1370
1535 1530 1524 1518 1512 1506 1501 1496 1490 1485 1479 1474 1470 1465 1460 1454 1450 1445 1439 1434 1430 1426 1421 1417 1413 1409 1403 1397 1390 1384 1379 1374 1370 1366 1362 1359 1357 1356 1356 1357 1359 1363 1367
1537 1531 1525 1519 1513 1508 1502 1497 1492 1487 1482 1477 1472 1468 1463 1458 1454 1449 1444 1438 1433 1429 1424 1420 1416 1411 1405 1400 1394 1389 1384 1379 1373 1368 1363 1359 1356 1354 1353 1354 1356 1360 1365
1538 1532 1526 1521 1515 1509 1503 1498 1492 1487 1482 1478 1474 1469 1465 1461 1457 1453 1448 1444 1438 1433 1428 1424 1419 1414 1408 1402 1397 1392 1387 1381 1376 1370 1365 1360 1356 1353 1352 1353 1355 1357 1361
1538 1533 1527 1522 1516 1510 1503 1498 1492 1488 1483 1479 1475 1470 1466 1463 1459 1455 1451 1447 1442 1437 1432 1428 1423 1417 1410 1404 1400 1395 1389 1384 1379 1374 1369 1364 1360 1356 1354 1354 1355 1357 1360
1539 1533 1528 1522 1517 1511 1505 1499 1493 1488 1484 1480 1475 1471 1467 1463 1460 1456 1452 1448 1444 1440 1435 1430 1425 1420 1414 1409 1403 1398 1393 1389 1385 1380 1375 1371 1365 1360 1356 1354 1355 1356 1359
1538 1534 1528 1523 1518 1512 1507 1501 1495 1490 1486 1481 1476 1472 1467 1463 1460 1457 1454 1450 1446 1442 1437 1433 1427 1422 1416 1411 1407 1402 1398 1393 1389 1385 1381 1376 1370 1365 1361 1358 1356 1357 1359
1538 1533 1528 1523 1518 1513 1508 1503 1498 1492 1486 1481 1476 1472 1468 1464 1460 1457 1453 1450 1447 1443 1439 1434 1430 1426 1421 1417 1412 1408 1403 1399 1395 1391 1386 1382 1377 1373 1369 1365 1362 1361 1362
1537 1533 1528 1523 1518 1513 1508 1503 1497 1493 1488 1482 1476 1471 1467 1463 1459 1455 1452 1449 1446 1443 1439 1436 1432 1429 1425 1421 1417 1413 1409 1405 1401 1397 1393 1389 1385 1381 1377 1373 1371 1368 1367
1537 1533 1528 1523 1519 1514 1509 1504 1498 1492 1487 1482 1477 1471 1466 1462 1458 1454 1451 1447 1444 1441 1438 1436 1433 1430 1427 1424 1420 1417 1413 1410 1406 1402 1399 1395 1392 1388 1385 1382 1380 1378 1375
1535 1531 1527 1523 1518 1513 1509 1504 1498 1493 1488 1482 1477 1472 1467 1462 1458 1453 1449 1445 1442 1439 1437 1435 1433 1430 1428 1426 1423 1420 1417 1413 1410 1407 1404 1401 1399 1396 1393 1390 1388 1387 1384
1534 1530 1526 1522 1517 1513 1508 1502 1497 1492 1487 1482 1477 1472 1467 1462 1457 1452 1448 1444 1440 1437 1435 1433 1431 1429 1428 1426 1424 1421 1419 1417 1414 1411 1409 1407 1404 1402 1400 1398 1396 1394 1393
1533 1529 1526 1521 1517 1512 1507 1502 1497 1492 1487 1482 1477 1472 1469 1463 1458 1453 1448 1443 1439 1436 1433 1431 1429 1427 1426 1425 1424 1422 1421 1419 1417 1415 1413 1411 1410 1408 1406 1405 1404 1403 1402
1531 1528 1525 1521 1516 1512 1507 1502 1497 1492 1487 1481 1477 1472 1468 1463 1458 1453 1448 1443 1439 1435 1431 1428 1426 1425 1424 1423 1423 1422 1421 1420 1419 1418 1417 1415 1414 1413 1412 1411 1410 1410 1410
1530 1528 1525 1521 1517 1512 1508 1503 1497 1491 1486 1481 1476 1471 1466 1462 1457 1453 1448 1443 1438 1434 1430 1426 1423 1422 1421 1420 1420 1421 1421 1421 1421 1420 1419 1419 1418 1417 1416 1416 1416 1415 1416
1529 1527 1524 1521 1517 1513 1508 1503 1497 1491 1486 1480 1475 1470 1466 1461 1457 1452 1447 1442 1438 1433 1429 1425 1421 1419 1417 1417 1417 1418 1419 1420 1420 1421 1421 1421 1420 1420 1420 1419 1420 1420 1420
1527 1525 1523 1520 1517 1513 1508 1503 1498 1492 1486 1481 1475 1470 1465 1460 1456 1451 1446 1442 1437 1432 1428 1423 1419 1416 1414 1413 1413 1414 1416 1417 1419 1420 1421 1422 1422 1422 1422 1422 1423 1423 1424
1525 1524 1522 1519 1516 1512 1508 1504 1499 1493 1487 1481 1476 1470 1465 1460 1455 1450 1445 1441 1436 1431 1426 1422 1417 1413 1410 1408 1408 1409 1411 1414 1416 1418 1420 1422 1423 1423 1424 1424 1425 1426 1427